Blue Bucket Stampede - Trap Training & Settling Inventory

Station: Loft Inventory - T Race

Distance: 0.1 Miles    

Release: 25-Mar-2020 07:15

Weather Release:    Arrival:

Wind at Release:     Wind at Arrival:

Temp at Release: °    Temp at Arrival: °

Lofts: 133

Birds: 469

Clocked: 462

Good Luck to Everyone!
Drops Pos Breeder Pigeon Name Color Sex Ent Arrival Speed To Win Elg PdOp1Op2
1 Bob & Rusty - NV 6919-AU20-JEDD BB H 1 09:18:46.74 1.422 00:00:00 Yes
2 AFL - GA 0109-IF20-AFL 313 AFL x 340 AFL BB H 1 09:20:39.05 1.401 00:01:51 Yes
3 Cherokee Loft - MI 0613-AU20-CHER 524 Trouble X 1221 Kolv BB H 1 09:20:44.43 1.400 00:01:57 Yes
4 Michigan Race Team - MI 1205-AU20-SMCC BC H 1 09:20:45.58 1.399 00:02:02 Yes
4 Scrub Family Loft - MN 0053-AU20-SCRB DC C 1 09:20:47.10 1.399 00:02:02 Yes
4 Shi Loft - PA 1714-IF20-ERIE BBTW H 1 09:20:49.25 1.399 00:02:02 Yes
7 ** Team Pinoy ** - CA 4703-AU20-JEDD LBC H 1 09:20:51.74 1.398 00:02:07 Yes
7 Devore Loft - GA 0010-AU20-NA 956 x 288 BC C 1 09:20:52.52 1.398 00:02:07 Yes
7 Crooked River Challenge - OR 4216-AU20-CORP 2157 x 4661 BB C 1 09:20:55.73 1.398 00:02:07 Yes
10 Piper Loft - WA 2123-AU20-FTV BBT C 1 09:20:56.62 1.397 00:02:13 Yes
10 C.D. Dovecote - MN 0008-AU20-DOVE 952 X 3738 BB C 1 09:21:01.58 1.397 00:02:13 Yes
12 Jimmy Zheng Loft - MS 0073-AU20-JIMY BB H 1 09:21:01.95 1.396 00:02:18 Yes
13 Alaniz Loft 🇲🇽 - IL 0091-AU20-ALNZ BBW H 1 09:21:09.61 1.395 00:02:24 Yes
13 Jimmy Zheng Loft - MS 0185-AU20-JIMY BBPW H 2 09:21:10.14 1.395 00:02:24 Yes
13 Scrub Family Loft - MN 0065-AU20-SCRB DC H 2 09:21:11.66 1.395 00:02:24 Yes
13 Flyhome Loft - KY 2002-AU20-FLYH BC H 1 09:21:12.30 1.395 00:02:24 Yes
17 Clausing - FL 0195-IF20-CLAU BBPW C 1 09:21:14.39 1.394 00:02:29 Yes
17 Scrub Family Loft - MN 0054-AU20-SCRB BBPW H 3 09:21:14.68 1.394 00:02:29 Yes
17 Emerson/Donnelly - SC 0302-AU20-MERL BCT H 1 09:21:15.69 1.394 00:02:29 Yes
20 Kolvenbag & Son - PA 1417-IF20-KOLV BCW C 1 09:21:24.89 1.392 00:02:40 Yes
20 Clausing - FL 0194-IF20-CLAU LBC C 2 09:21:24.97 1.392 00:02:40 Yes
20 Jeff Bailey - CA 5102-AU20-SRP BBPW H 1 09:21:28.48 1.392 00:02:40 Yes
23 Dave Conover - PA 2317-IF20-PHX BB H 1 09:21:30.37 1.391 00:02:46 Yes
24 G & L Loft - OR 1520-AU20-WPC BB H 1 09:21:36.25 1.390 00:02:51 Yes
24 Genesis Syndicate Loft - AZ 0511-AU20-GENE BB C 1 09:21:37.00 1.390 00:02:51 Yes
24 Crooked River Challenge - OR 4225-AU20-CORP 1081 x 2231 BB C 2 09:21:37.50 1.390 00:02:51 Yes
24 Nemelka Racing Pigeon Loft - UT 0008-AU20-NRPL Debacker x Splendiferous BB C 1 09:21:39.60 1.390 00:02:51 Yes
28 Baldwin & Tillson - NC 0034-AU20-TENT SLTT H 1 09:21:40.36 1.389 00:02:56 Yes
28 Devore Loft - GA 9918-AU20-DEVO 218 x 237 BB H 2 09:21:40.66 1.389 00:02:56 Yes
28 Sierra Ranch - CA 0212-AU20-SR BBT H 1 09:21:42.09 1.389 00:02:56 Yes
28 ** Team Pinoy ** - CA 4706-AU20-JEDD BCPW H 2 09:21:43.05 1.389 00:02:56 Yes
28 J S R Loft - UT 13301-AU20-AA DC H 1 09:21:44.38 1.389 00:02:56 Yes
33 J S R Loft - UT 13302-AU20-AA DC C 2 09:21:47.61 1.388 00:03:02 Yes
33 Elton Dinga - TX 11017-AU20-AA Br 1 Champion TX Shootout BB H 1 09:21:49.45 1.388 00:03:02 Yes
35 Steven Loft - TX 0153-AU20-CCL BB H 1 09:21:52.30 1.387 00:03:07 Yes
36 Andy Owen - GA 0013-AU20-OWEN BB H 1 09:22:00.71 1.386 00:03:13 Yes
37 Scrub Family Loft - MN 0014-AU20-SCRB The Legend BC H 4 09:22:02.57 1.385 00:03:18 Died
37 Clausing - FL 0091-IF20-CLAU BB H 3 09:22:02.89 1.385 00:03:18 Yes
37 Zheng Loft - FL 0030-IF20-ZHEN BB H 1 09:22:04.18 1.385 00:03:18 Yes
37 Genesis Syndicate Loft - AZ 0510-AU20-GENE BBP C 2 09:22:04.77 1.385 00:03:18 Yes
37 Clausing - FL 0096-IF20-CLAU BB C 4 09:22:05.79 1.385 00:03:18 Yes
42 Cherokee Loft - MI 0611-AU20-CHER 7777 Ludo X 2094 Nanez BBT H 2 09:22:08.03 1.384 00:03:24 Yes
42 Zheng Loft - FL 0029-IF20-ZHEN LBC C 2 09:22:08.87 1.384 00:03:24 Yes
42 Pleasant Task Farm - PA 0017-AU20-PTF BB H 1 09:22:11.08 1.384 00:03:24 Yes
42 Chen & Liu Family - CT 0019-IF20-LIU LBC H 1 09:22:11.44 1.384 00:03:24 Yes
46 Nemelka Racing Pigeon Loft - UT 0010-AU20-NRPL Psycho Killer x Aarden 2 BB C 2 09:22:15.39 1.383 00:03:29 Yes
46 Irishsyndicatelofts - AZ 1016-AU20-IRSH BC H 1 09:22:16.83 1.383 00:03:29 Yes
46 Steven Loft - TX 0150-AU20-CCL CHOC H 2 09:22:16.87 1.383 00:03:29 Yes
46 L S U - LA 0461-AU20-LSU MLY H 1 09:22:16.88 1.383 00:03:29 Yes
46 Carlitos El Animal & Dammay Matanza - FL 2515-AU20-JEDD Constans BBTW H 1 09:22:17.10 1.383 00:03:29 Yes
51 Van Den Bossche Brothers - ME 0001-IF20-VDB Cracker LBC C 1 09:22:20.73 1.382 00:03:35 Yes
52 98 M J - PA 0003-AU20-JIAN BCW H 1 09:22:24.95 1.381 00:03:40 Yes
52 Thunder Birds/Rodriguez Breeding Loft - TX 5451-AU20-JEDD BF-CRO BB H 1 09:22:25.88 1.381 00:03:40 Yes
52 Tyler Loft - TX 6195-AU20-ARPU BB H 1 09:22:28.12 1.381 00:03:40 Yes
52 Scrub Family Loft - MN 0099-AU20-SCRB DC C 5 09:22:28.22 1.381 00:03:40 Yes
52 Arandas Loft - TX 7702-AU20-JEDD BBSP H 1 09:22:29.15 1.381 00:03:40 Yes
57 Dave Harrett - WA 7202-AU20-JEDD BB C 1 09:22:29.61 1.380 00:03:46 Yes
57 Ken Family Loft - FL 0515-AU20-XKL BBW H 1 09:22:31.53 1.380 00:03:46 Yes
57 Rachel Olivieri - CA 20516-AU20-LAKE K1 BB C 1 09:22:32.78 1.380 00:03:46 Yes
60 Emerson/Donnelly - SC 0312-AU20-MERL SLT H 2 09:22:35.50 1.379 00:03:52 Yes
60 Adam Hajduga - IL 0018-AU20-HAJD BBPW C 1 09:22:37.94 1.379 00:03:52 Yes
60 Peters - GA 1956-AU20-NA HEAD WIND BB H 1 09:22:38.84 1.379 00:03:52 Yes
60 S-And M - MI 1213-AU20-SMCC BCP H 1 09:22:40.01 1.379 00:03:52 Yes
64 Cherokee Loft - MI 0609-AU20-CHER Nanez X 3341 Iron Clad BBP H 3 09:22:41.20 1.378 00:03:57 Yes
64 Shi Loft - PA 1711-IF20-ERIE BB C 2 09:22:42.43 1.378 00:03:57 Yes
64 Pleasant Task Farm - PA 0022-AU20-PTF SBB C 2 09:22:43.12 1.378 00:03:57 Yes
64 L S U - LA 0466-AU20-LSU RC H 2 09:22:44.37 1.378 00:03:57 Yes
64 Mt. Hood Syndicate - WA 0003-AU20-KEYW Keyways Loft BC H 1 09:22:45.52 1.378 00:03:57 Yes
64 Nemelka Racing Pigeon Loft - UT 0009-AU20-NRPL Psycho Killer x Aarden 2 DC H 3 09:22:45.69 1.378 00:03:57 Yes
70 Nemelka Racing Pigeon Loft - UT 0015-AU20-NRPL deBelsar '15 x 7144 DC H 4 09:22:48.22 1.377 00:04:03 Yes
70 R & D Racing 2 - ON 4403-AU20-AA SBBP H 1 09:22:49.94 1.377 00:04:03 Yes
70 Racing Pigeon Mall - WA 1004-AU20-RPM BLK C 1 09:22:50.67 1.377 00:04:03 Yes
73 Arandas Loft - TX 7692-AU20-JEDD DC H 2 09:22:51.67 1.376 00:04:08 Yes
73 Wtj Loft - TX 0180-AU20-WTJ BC H 1 09:22:52.54 1.376 00:04:08 Yes
73 Sierra Ranch - CA 0280-AU20-SR BB H 2 09:22:54.76 1.376 00:04:08 Yes
76 A-Lo-Loft - NY 0013-AU20-ALOL ☯️☯️☯️ BBW C 1 09:22:57.48 1.375 00:04:14 Yes
77 Wtj Loft - TX 0153-AU20-WTJ LBC H 2 09:23:05.20 1.374 00:04:19 Yes
77 Peters - GA 0059-AU20-PETE RED ROCKET RED C 2 09:23:05.66 1.374 00:04:19 Yes
79 Scrub Family Loft - MN 0052-AU20-SCRB DC H 6 09:23:12.39 1.373 00:04:25 Yes
79 Carlitos El Animal & Dammay Matanza - FL 0032-AU20-ANIM Ave - Ave DC C 2 09:23:13.72 1.373 00:04:25 Yes
81 Clausing - FL 0106-IF20-CLAU BB H 5 09:23:15.14 1.372 00:04:31 Yes
81 Danny Lum - HI 0401-IF20-FSC BB H 1 09:23:15.22 1.372 00:04:31 Yes
81 R & D Racing 2 - ON 4404-AU20-AA BB H 2 09:23:15.70 1.372 00:04:31 Yes
81 Greek Connection - SC 0312-AU20-GREK BB C 1 09:23:16.07 1.372 00:04:31 Yes
81 Emerson/Donnelly - SC 0306-AU20-MERL BB H 3 09:23:16.74 1.372 00:04:31 Yes
81 Dave Harrett - WA 7203-AU20-JEDD BB C 2 09:23:17.98 1.372 00:04:31 Yes
87 Credeur Family Loft - LA 0901-AU20-CFL LBC H 1 09:23:19.82 1.371 00:04:36 Yes
87 The Delta Renegades - TN 3501-AU20-MCF BB H 1 09:23:23.76 1.371 00:04:36 Yes
87 Rachel Olivieri - CA 20500-AU20-LAKE K1 BB C 2 09:23:24.46 1.371 00:04:36 Yes
87 Arandas Loft - TX 7679-AU20-JEDD BC H 3 09:23:24.70 1.371 00:04:36 Yes
91 Wtj Loft - TX 0165-AU20-WTJ BB C 3 09:23:26.73 1.370 00:04:42 Yes
91 Da-Dong - WI 2817-AU20-RAC BBTW H 1 09:23:27.98 1.370 00:04:42 Yes
91 Kolvenbag & Son - PA 1401-IF20-KOLV BB H 2 09:23:30.21 1.370 00:04:42 Yes
94 Keyways - OR 0014-AU20-KEYW 8566 X 1082 BC H 1 09:23:31.18 1.369 00:04:47 Yes
94 Mt. Hood Syndicate - WA 20018-AU20-BORD Ceciliani BB C 2 09:23:34.67 1.369 00:04:47 Yes
96 Scrub Family Loft - MN 0013-AU20-SCRB Blue Ranger BB C 7 09:23:38.68 1.368 00:04:53 Yes
97 Eastern Pearl Loft - VA 0712-AU20-EPL 🈚️量712 BB H 1 09:23:42.37 1.367 00:04:59 Yes
98 B.C. Weaver - FL 32951-AU20-APRU Da ELI BC C 1 09:23:48.40 1.366 00:05:04 Yes
98 A P C Loft - TX 20052-AU20-APCL LBC H 1 09:23:48.66 1.366 00:05:04 Yes
98 Emerson/Donnelly - SC 0316-AU20-MERL DC H 4 09:23:51.42 1.366 00:05:04 Yes

There are 766 bird records

Note: These Race Results are unofficial and subject to change until verified by the Race Committee and declared final.



windy
Click for Forecast for 97754 from weatherUSA